Asterix

operational
NORAD ID: 1778 Int'l Des: 1965-096 Owner: CNES Country: F
LEO

About Asterix

Description loading...

Live Position

Loading 3D Globe...

Upcoming Passes

Altitude History

Altitude vs Time

uPlot chart will show altitude changes over time

Two-Line Element Set

1 1778U 65096A 25310.76368161 .00001279 00000-0 34637-3 0 9993
2 1778 34.2541 230.8590 0740055 67.6467 300.0898 13.49585330934722
Epoch: Nov 6, 2025 • Age: 21 hours

Current Status

Altitude 977.8 km
Velocity 7.41 km/s
Sub-Earth Point -5.84°S, 62.95°W
Type other

Large Constellations

Loading constellations...